Regional Weather Roundup
Issued by NWS Sterling, VA

Home | Current Version | Previous Version | Text Only | Print | Product List | Glossary Off
Versions: 1 2 3 4 5 6 7 8 9 10 11 12 13 14 15 16 17 18 19 20 21 22 23 24 25 26 27 28 29 30 31 32 33 34 35 36 37 38 39 40 41 42 43 44 45 46 47 48 49 50

000
ASUS41 KLWX 180611
RWRLWX

REGIONAL WEATHER ROUNDUP
NATIONAL WEATHER SERVICE BALTIMORE MD/WASHINGTON DC
200 AM EDT WED OCT 18 2017

Note: "FAIR" indicates few or no clouds below 12,000 feet
with no significant weather and/or obstructions to visibility.
 TC=TEMPERATURE CELSIUS

 * =Non NWS site. Station does not report precipitation (e.g. rain,
    snow, etc.), thunder, or fog.

DCZ001-MDZ009-015-VAZ040>042-051-053>054-180700-
WASHINGTON METRO

CITY           SKY/WX    TMP DP  RH WIND       PRES   REMARKS
WASHINGTON NAT CLEAR     50  43  77 CALM      30.35R
DULLES         CLEAR     40  38  93 CALM      30.33S
ANDREWS AFB    CLEAR     42  39  89 CALM      30.32S
FT BELVOIR     CLEAR     40  39  95 CALM      30.34S
QUANTICO       CLEAR     44  43  96 NW7       30.35S
COLLEGE PARK*  CLEAR     41  40  95 CALM      30.33S
LEESBURG*      CLEAR     43  41  93 S5        30.34R
MANASSAS*      CLEAR     38  37  97 CALM      30.34S
GAITHERSBURG*  CLEAR     41  39  93 CALM      30.33S

$$

MDZ006>007-011-014-180700-
BALTIMORE METRO

CITY           SKY/WX    TMP DP  RH WIND       PRES   REMARKS
BWI AIRPORT    CLEAR     43  41  93 CALM      30.33S
MD SCIENCE CTR   N/A     52  40  63 MISG      30.33S
MARTIN STATE   CLEAR     46  45  93 CALM      30.35R
ANNAPOLIS      CLEAR     49  46  90 CALM      30.33S
FORT MEADE*    CLEAR     37  37 100 CALM      30.36R

$$

MDZ012-015-019>023-180700-
MARYLAND EASTERN SHORE

CITY           SKY/WX    TMP DP  RH WIND       PRES   REMARKS
OCEAN CITY     CLEAR     40  39  97 CALM      30.34F
SALISBURY      CLEAR     38  37  97 CALM      30.34S
CAMBRIDGE*     CLEAR     39  37  93 CALM      30.34S
EASTON*        CLEAR     43  40  91 CALM      30.37S

$$

MDZ017>025-180700-
SOUTHERN MARYLAND

CITY           SKY/WX    TMP DP  RH WIND       PRES   REMARKS
PATUXENT RIVER CLEAR     41  32  70 SW3       30.33S
ST INIGOES     CLEAR     40  39  97 NE3       30.33S
LEONARDTOWN*   NOT AVBL

$$

MDZ003>005-180700-
NORTH CENTRAL MARYLAND

CITY           SKY/WX    TMP DP  RH WIND       PRES   REMARKS
FREDERICK*     CLEAR     41  41 100 CALM      30.36R
HAGERSTOWN APT CLEAR     47  37  68 CALM      30.32S
WESTMINSTER*   CLEAR     46  39  76 CALM      30.32S

$$

MDZ501>502-180700-
WESTERN MARYLAND

CITY           SKY/WX    TMP DP  RH WIND       PRES   REMARKS
OAKLAND*       CLEAR     45  32  61 W6        30.30S
CUMBERLAND*      N/A     41  41 100 CALM      30.37R VSB 1

$$

VAZ025>031-180700-
SHENANDOAH VALLEY

CITY           SKY/WX    TMP DP  RH WIND       PRES   REMARKS
WINCHESTER*    CLEAR     41  36  81 CALM      30.32S
FRONT ROYAL*   CLEAR     37  37 100 CALM      30.32R
LURAY*         CLEAR     37  37 100 CALM      30.33S
NEW MARKET*    CLEAR     37  35  94 CALM      30.33R
STAUNTON*      CLEAR     34  32  94 CALM      30.35S
WAYNESBORO*    CLEAR     39  37  93 S6        30.33R

$$

WVZ021-048>050-054>055-180700-
EASTERN WEST VIRGINIA PANHANDLE

CITY           SKY/WX    TMP DP  RH WIND       PRES   REMARKS
MARTINSBURG    CLEAR     39  36  89 CALM      30.32R
PETERSBURG*    CLEAR     36  35  97 CALM      30.34S

$$

VAZ036>039-050-180700-
CENTRAL FOOTHILLS

CITY           SKY/WX    TMP DP  RH WIND       PRES   REMARKS
CHARLOTTESVILL CLEAR     44  41  89 CALM      30.33S
CULPEPER*      CLEAR     36  35  93 CALM      30.35S
ORANGE*        CLEAR     36  36 100 CALM      30.33S
GORDONSVILLE*  CLEAR     37  37 100 CALM      30.33S
WARRENTON*     CLEAR     35  32  90 CALM      30.33S

$$

VAZ055>057-180700-
NORTH AND CENTRAL PIEDMONT

CITY           SKY/WX    TMP DP  RH WIND       PRES   REMARKS
FREDERICKSBRG* CLEAR     40  40 100 CALM      30.34S
STAFFORD*      CLEAR     35  35 100 CALM      30.38S

$$

NCZ024-NYZ072-PAZ021-071-VAZ022-071-180700-
OTHER REGIONAL OBSERVATIONS

CITY           SKY/WX    TMP DP  RH WIND       PRES   REMARKS
NEW YORK CITY  CLEAR     52  36  54 MISG      30.31S
PHILADELPHIA   CLEAR     50  40  68 W3        30.33R
PITTSBURGH     CLEAR     48  39  71 CALM      30.31R
ROANOKE        CLEAR     43  39  86 CALM      30.35S
RICHMOND       CLEAR     42  40  92 CALM      30.34F
RALEIGH        CLEAR     42  40  92 CALM      30.32F

$$

ANZ530>537-180700-
MARINE OBSERVATIONS

STATION/POSITION TIME  TEMP    WIND        PRES
                       AIR SEA DIR/SP/G
                 (UTC) (F)     (DEG/KT/KT) (MB)
THOMAS PT LIGHT  0600   55 67  260/ 10/ 11   N/A
BALT KEY BRIDGE  0548          250/  5/  6 1027.0R
COVE POINT       0548          250/  5/  7 1027.8S
LEWISETTA        0548          220/  4/  4 1027.2S
SOLOMONS ISLAND  0548          300/  3/  4 1026.8S
PINEY POINT      0542          250/  4/  5   N/A

$$




USA.gov is the U.S. government's official web portal to all federal, state and local government web resources and services.